Location: Sternwarte auf dem Internationalen Platz Vogelsang IP
(50.5721°N, 6.4398°E)
Time: 00:32:52
(UTC+01:00)

S-56A Canister/Altair - All Passes

Search period start: 06 December 2025 00:00
Search period end: 16 December 2025 00:00
Orbit: 632 x 2485 km, 38.9° (Epoch: 05 December)

Date Brightness Start Highest point End Pass type
(mag) Time Alt. Az. Time Alt. Az. Time Alt. Az.
06 Dec - 00:55:26 10° SW 01:01:22 35° S 01:09:49 10° ESE visible
06 Dec - 02:57:47 10° WSW 03:04:51 35° S 03:14:48 10° SE visible
06 Dec - 05:01:48 10° WSW 05:08:39 21° SSW 05:17:10 10° SSE visible
06 Dec - 22:21:10 10° S 22:24:16 15° SE 22:27:55 10° ESE night (unlit)
07 Dec - 00:21:08 10° SW 00:26:35 32° SSE 00:34:11 10° ESE night (unlit)
07 Dec - 02:23:16 10° WSW 02:29:52 34° S 02:39:13 10° SE visible
07 Dec - 04:26:55 10° WSW 04:33:34 22° SSW 04:42:03 10° SSE visible
07 Dec - 21:47:53 10° SSE 21:49:44 12° SE 21:51:45 10° ESE night (unlit)
07 Dec - 23:46:53 10° SW 23:51:51 29° SSE 23:58:37 10° ESE night (unlit)
08 Dec - 01:48:48 10° WSW 01:54:57 34° S 02:03:40 10° SE visible
08 Dec - 03:52:08 10° WSW 03:58:32 23° SSW 04:06:51 10° SSE visible
08 Dec - 23:12:42 10° SW 23:17:11 26° SSE 23:23:06 10° ESE night (unlit)
09 Dec - 01:14:22 10° WSW 01:20:05 33° S 01:28:08 10° SE night (unlit)
09 Dec - 03:17:26 10° WSW 03:23:33 24° SSW 03:31:36 10° SSE visible
09 Dec - 22:38:33 10° SSW 22:42:34 22° SSE 22:47:37 10° ESE night (unlit)
10 Dec - 00:39:59 10° WSW 00:45:17 32° S 00:52:38 10° ESE night (unlit)
10 Dec - 02:42:49 10° WSW 02:48:36 24° SSW 02:56:17 10° SSE visible
10 Dec - 04:50:06 10° SW 04:52:01 11° SW 04:54:02 10° SSW visible
10 Dec - 22:04:29 10° SSW 22:07:58 19° SSE 22:12:11 10° ESE night (unlit)
11 Dec - 00:05:38 10° WSW 00:10:32 30° S 00:17:12 10° ESE night (unlit)
11 Dec - 02:08:16 10° WSW 02:13:43 25° SSW 02:20:59 10° SSE visible
11 Dec - 04:14:17 10° SW 04:17:04 12° SSW 04:20:08 10° SSW visible
11 Dec - 21:30:30 10° SSW 21:33:25 16° SSE 21:36:45 10° ESE night (unlit)
11 Dec - 23:31:19 10° SW 23:35:50 28° S 23:41:49 10° ESE night (unlit)
12 Dec - 01:33:45 10° WSW 01:38:53 25° SSW 01:45:41 10° SE night (unlit)
12 Dec - 03:38:59 10° SW 03:42:09 12° SSW 03:45:44 10° S visible
12 Dec - 20:56:41 10° S 20:58:52 13° SSE 21:01:14 10° SE night (unlit)
12 Dec - 22:57:00 10° SW 23:01:10 26° S 23:06:31 10° ESE night (unlit)
13 Dec - 00:59:17 10° WSW 01:04:04 25° S 01:10:24 10° SE night (unlit)
13 Dec - 03:03:56 10° SW 03:07:16 13° SSW 03:11:07 10° S visible
13 Dec - 20:23:21 10° SSE 20:24:19 11° SSE 20:25:19 10° SE night (unlit)
13 Dec - 22:22:43 10° SW 22:26:33 24° S 22:31:17 10° ESE night (unlit)
14 Dec - 00:24:51 10° WSW 00:29:19 24° S 00:35:09 10° SE night (unlit)
14 Dec - 02:29:03 10° SW 02:32:25 14° SSW 02:36:22 10° S night (unlit)
14 Dec - 21:48:26 10° SW 21:51:57 21° SSE 21:56:06 10° ESE night (unlit)
14 Dec - 23:50:26 10° WSW 23:54:37 24° S 23:59:58 10° SE night (unlit)
15 Dec - 01:54:16 10° SW 01:57:37 14° SSW 02:01:32 10° S night (unlit)
15 Dec - 21:14:10 10° SSW 21:17:23 19° SSE 21:21:00 10° ESE night (unlit)
15 Dec - 23:16:01 10° WSW 23:19:57 23° S 23:24:49 10° SE night (unlit)
